This demonstration page uses our WeatherBlox Daily Observations layout. Learn more.

Left ArrowRight Arrow

41.55636, -103.73856

Hourly Observations for November 5, 2019

Temp ( °F °C ) Dew Point ( °F °C ) Humidity (%) Winds ( mph kmh ) Pressure ( in mb ) Visibility ( mi km ) Precip ( " mm )
12:58 am 00:58 Mostly Cloudy 34 1.1 33 0.8 98 98 SE 6 9 30.27 1025 10 16.0934 N/A
1:58 am 01:58 Mostly Cloudy 35 1.6 33 0.8 94 94 S 7 11 30.28 1025 10 16.0934 N/A
2:58 am 02:58 Mostly Cloudy 35 1.7 34 1.1 96 96 SSE 3 6 30.28 1025 10 16.0934 N/A
3:58 am 03:58 Mostly Cloudy 35 1.7 34 1.2 97 97 SSE 3 6 30.24 1024 10 16.0934 N/A
4:58 am 04:58 Mostly Cloudy 36 2.3 35 1.6 95 95 S 7 11 30.24 1024 10 16.0934 N/A
5:58 am 05:58 Mostly Cloudy 36 2 34 1.2 95 95 N N/A 30.25 1025 10 16.0934 N/A
6:58 am 06:58 Cloudy 36 2.2 35 1.4 95 95 N N/A 30.24 1024 10 16.0934 N/A
7:58 am 07:58 Mostly Cloudy 35 1.8 34 1.2 96 96 SW 5 7 30.22 1024 10 16.0934 N/A
8:58 am 08:58 Cloudy 34 1.1 33 0.6 97 97 WSW 7 11 30.21 1023 8 12.87472 N/A
10:58 am 10:58 Partly Cloudy with Mist and Fog 30 -1.1 30 -1.3 99 99 SW 9 15 30.22 1023 4 6.43736 N/A
11:58 am 11:58 Clear 29 -1.6 28 -2 97 97 SW 7 11 30.24 1024 9 14.48406 N/A
12:58 pm 12:58 Clear 28 -2.4 26 -3.2 94 94 SSW 8 13 30.23 1024 10 16.0934 N/A
1:58 pm 13:58 Sunny 30 -1.3 27 -3 88 88 SW 8 13 30.24 1024 10 16.0934 N/A
2:58 pm 14:58 Sunny 33 0.7 30 -1.2 87 87 WSW 7 11 30.24 1024 10 16.0934 N/A
3:58 pm 15:58 Sunny 40 4.2 33 0.7 78 78 WNW 3 6 30.21 1023 10 16.0934 N/A
4:58 pm 16:58 Sunny 48 8.7 35 1.5 61 61 NW 12 19 30.18 1022 10 16.0934 N/A
5:58 pm 17:58 Sunny 53 11.6 30 -1.1 42 42 WNW 15 24 30.17 1022 10 16.0934 N/A
6:58 pm 18:58 Sunny 55 12.8 29 -1.7 37 37 NW 17 28 30.12 1020 10 16.0934 N/A
7:58 pm 19:58 Sunny 56 13.2 28 -2.1 35 35 NW 17 28 30.11 1020 10 16.0934 N/A
8:58 pm 20:58 Sunny 56 13.6 27 -2.8 32 32 WNW 8 13 30.09 1019 10 16.0934 N/A
9:58 pm 21:58 Sunny 57 14.1 25 -4.1 28 28 WNW 12 19 30.11 1020 10 16.0934 N/A
10:58 pm 22:58 Sunny 56 13.2 25 -3.7 31 31 WNW 9 15 30.11 1020 10 16.0934 N/A
11:58 pm 23:58 Clear 50 10 28 -2.2 43 43 NW 10 17 30.13 1020 10 16.0934 N/A

Powered by AerisWeather